Retour au catalogue

BREEZE-M DEB

ActifHEO
NORAD 38646·DEBRIS·🇷🇺 Russia

Lancé Mar 14, 2008 depuis Baikonur Cosmodrome

Loading…

Prochains Passages (prochaines 24 heures)

TLE

FraisSource: Space-Track

Époque: Sep 14, 2026, 11:39 UTC

1 38646U 08011CV  26257.48592453  .00001033  00000-0  46769-1 0  9999
2 38646  49.3231  19.7685 6370128 212.1841  88.2096  3.05980220151967

Suivez BREEZE-M DEB en temps réel avec AllMySat

Download on the App Store